Weather observations for the past three days for
Fort Collins/Loveland - Northern Colorado Regional Airport
Imperial (Metric)
Date Time (mdt) Wind (mph) Vis. (mi.) Weather Sky Cond. Temperature (ºF) Relative Humidity Wind Chill (°F) Heat Index (°F) Pressure Precipitation (in)
Air Dwpt 6 hour altimeter (in) sea level (mb) 1 hr 3 hr 6 hr
Max. Min.
20 06:56 N 7 10.00 Fair CLR 57.9 57 97% 30.16 1016.5
20 05:56 N 7 10.00 Fair CLR 55 54 59 53.1 96% 30.15 1016.2
20 04:56 N 6 10.00 Fair CLR 55 54 96% 30.14 1016.3
20 03:56 N 7 10.00 Fair CLR 57 55 93% 30.15 1016.2
20 02:56 NW 6 10.00 Fair CLR 55.9 54 93% 30.16 1016.6
20 01:56 N 3 10.00 Fair CLR 57.9 55 90% 30.17 1016.7
20 00:56 N 5 10.00 A Few Clouds FEW110 59 55 87% 30.18 1017.3
19 23:56 NW 6 10.00 Fair CLR 57.9 54 71.1 57.9 87% 30.19 1018.3
19 22:56 N 7 10.00 Fair CLR 59 55 87% 30.19 1018.2
19 21:56 Calm 10.00 Fair CLR 60.1 53.1 78% 30.19 1018.3
19 20:56 E 8 10.00 Mostly Cloudy BKN050 64 54 70% 30.16 1017.5
19 19:56 SE 13 10.00 Light Rain FEW032 SCT047 BKN065 64 55.9 75% 30.15 1017.2
19 18:56 SE 17 G 23 10.00 Mostly Cloudy BKN055 69.1 52 55% 30.13 1016.1
19 17:56 SE 20 G 24 10.00 Partly Cloudy SCT060 71.1 52 73 62.1 51% 30.12 1016.0
19 16:56 SE 18 G 25 10.00 Overcast OVC055 69.1 51.1 53% 30.14 1016.7
19 15:56 SE 21 G 31 10.00 Mostly Cloudy and Breezy BKN060 70 50 49% 30.14 1016.2
19 14:56 SE 26 G 30 10.00 A Few Clouds and Windy FEW047 72 50 46% 30.15 1016.3
19 13:56 S 20 G 25 10.00 Overcast OVC055 71.1 44.1 38% 30.18 1016.9
19 12:56 S 14 10.00 A Few Clouds FEW075 69.1 46.9 45% 30.22 1018.3
19 11:56 S 7 10.00 Overcast OVC048 62.1 46.9 62.1 46.9 58% 30.24 1019.7
19 10:56 SW 5 10.00 Overcast BKN046 BKN055 OVC085 61 46 58% 30.26 1020.5
19 09:56 SW 6 10.00 Overcast SCT028 BKN040 OVC060 59 46 62% 30.27 1020.8
19 08:56 Calm 10.00 Overcast SCT023 BKN037 OVC060 54 39.9 59% 30.3 1021.8
19 07:56 Vrbl 3 10.00 Overcast OVC023 52 37 57% 30.29 1021.8
19 06:56 Vrbl 3 10.00 Overcast OVC032 51.1 34 52% 30.3 1021.6
19 05:56 Vrbl 5 10.00 Mostly Cloudy BKN095 46.9 34 61 46.9 61% 45 30.28 1021.1
19 04:56 NE 10 10.00 Fair CLR 48.9 33.1 55% 45 30.23 1019.4
19 03:56 NE 9 10.00 Fair CLR 52 28.9 41% 30.21 1018.2
19 02:56 E 8 10.00 A Few Clouds FEW090 55 34 45% 30.18 1017.3
19 01:56 E 5 10.00 Overcast OVC095 60.1 33.1 36% 30.18 1017.0
19 00:56 SW 7 10.00 Overcast OVC095 61 33.1 35% 30.19 1017.6
18 23:56 SE 7 10.00 Overcast FEW080 OVC100 61 30 75 60.1 31% 30.18 1017.0
18 22:56 S 9 10.00 Partly Cloudy SCT110 60.1 28.9 31% 30.17 1017.5
18 21:56 E 12 10.00 Fair CLR 64 25 23% 30.12 1015.1
18 20:56 E 8 10.00 Fair CLR 66.9 28.9 24% 30.06 1013.3
18 19:56 E 12 10.00 Fair CLR 69.1 28 22% 30.02 1011.8
18 18:56 SE 7 10.00 A Few Clouds FEW120 73 28.9 19% 29.99 1010.4
18 17:56 SE 10 G 18 10.00 Fair CLR 75 28.9 75.9 68 18% 76 29.97 1009.6
18 16:56 S 12 G 21 10.00 Fair CLR 73.9 30.9 20% 29.96 1008.9
18 15:56 S 15 G 23 10.00 Fair CLR 75.9 28.9 18% 76 29.96 1008.4
18 14:56 S 17 G 31 10.00 Fair CLR 73 28.9 19% 29.95 1008.1
18 13:56 S 15 G 24 10.00 Fair CLR 71.1 28.9 21% 29.94 1007.6
18 12:56 S 16 G 24 10.00 Fair CLR 69.1 28.9 22% 29.93 1006.9
18 11:56 SW 13 G 21 10.00 Fair CLR 68 30 69.1 55 24% 29.93 1006.4
18 10:56 S 13 10.00 Fair CLR 62.1 32 32% 29.92 1007.1
18 09:56 S 14 G 21 10.00 Fair CLR 63 32 31% 29.89 1006.1
18 08:56 S 10 10.00 Fair CLR 59 32 36% 29.87 1005.9
18 07:56 S 18 10.00 Fair CLR 57.9 30 35% 29.81 1003.3
18 06:56 S 17 10.00 Fair CLR 57 32 39% 29.81 1002.9
18 05:56 SW 15 10.00 Fair CLR 55 35.1 82.9 54 47% 29.75 1001.0
18 04:56 S 6 10.00 Fair CLR 59 39 48% 29.68 998.3
18 03:56 N 9 10.00 Fair CLR 62.1 33.1 34% 29.61 995.5
18 02:56 N 16 10.00 Fair CLR 64.9 36 34% 29.57 994.2
18 01:56 E 9 10.00 Fair CLR 71.1 36 28% 29.57 993.8
18 00:56 NW 3 10.00 Fair CLR 75.9 39.9 27% 77 29.53 992.4
17 23:56 W 20 G 28 10.00 Fair CLR 82.9 30.9 90 71.1 15% 80 29.51 991.5
17 22:56 SW 8 10.00 Fair CLR 78.1 33.1 19% 77 29.5 991.7
17 21:56 N 3 10.00 Fair CLR 73.9 57 56% 29.5 992.4
17 20:56 NW 9 10.00 Fair CLR 73 59 62% 29.48 992.0
17 19:56 N 6 10.00 Fair CLR 81 60.1 49% 82 29.47 991.0
17 18:56 N 9 10.00 Fair CLR 84.9 57 39% 84 29.47 990.9
17 17:56 Vrbl 3 10.00 Fair CLR 89.1 57.9 89.1 73 35% 88 29.48 990.9
17 16:56 E 7 10.00 Fair CLR 89.1 57.9 35% 88 29.51 992.2
17 15:56 E 9 10.00 Fair CLR 88 57.9 36% 87 29.54 993.2
17 14:56 SE 15 G 18 10.00 Fair CLR 84 57 40% 83 29.57 994.4
17 13:56 SE 7 10.00 Fair CLR 81 55 41% 81 29.61 996.0
17 12:56 Vrbl 6 10.00 Fair CLR 77 55.9 48% 79 29.63 996.9
17 11:56 Vrbl 3 10.00 Fair CLR 73 55.9 73 60.1 55% 29.68 998.6
17 10:56 S 7 10.00 A Few Clouds FEW024 71.1 55.9 59% 29.71 999.6
17 09:56 Vrbl 3 10.00 Mostly Cloudy BKN020 BKN030 68 55.9 65% 29.75 1000.9
17 08:56 SE 6 10.00 Mostly Cloudy SCT020 BKN030 64.9 55 70% 29.78 1001.9
17 07:56 SE 5 10.00 Overcast OVC019 63 54 73% 29.79 1002.3
Date Time (mdt) Wind (mph) Vis. (mi.) Weather Sky Cond. Air Dwpt Max. Min. Relative Humidity Wind Chill (°F) Heat Index (°F) altimeter (in) sea level (mb) 1 hr 3 hr 6 hr
6 hour
Temperature (ºF) Pressure Precipitation (in)